Terminal Aerodrome Forecast
Issued by NWS

Home | Current Version | Previous Version | Text Only | Print | Product List | Glossary On
Versions: 1 2 3 4 5 6 7 8 9 10 11 12 13 14 15 16 17 18 19 20 21 22 23 24 25
000
FTUS46 KOTX 301720
TAFSFF
TAF
KSFF 301720Z 3018/3118 22007KT P6SM FEW070 SCT150 BKN200
     FM302000 24010G16KT P6SM SCT070 BKN100 BKN200
     FM310200 23004KT P6SM SCT080 BKN100
     FM310600 23004KT P6SM BKN060 OVC100=

USA.gov is the U.S. government's official web portal to all federal, state and local government web resources and services.